Maugansville, MD

1:32 AM EDT on September 26, 2016 (GMT -0400)
Hagerstown Regional-Henson

Weather History for KHGR - March, 2014

Change the Weather History Date:

Thursday, March 13, 2014

  Actual Average Record
Temperature  
Mean Temperature 22 °F 40 °F  
Max Temperature 30 °F 49 °F 80 °F (2006)
Min Temperature 15 °F 31 °F 14 °F (2014)
Degree Days  
Heating Degree Days 42 25  
Month to date heating degree days 346  
Since 1 July heating degree days 4249  
Cooling Degree Days 0 0  
Month to date cooling degree days 0  
Year to date cooling degree days 0  
Moisture  
Dew Point 4 °F    
Average Humidity 43    
Maximum Humidity 60    
Minimum Humidity 31    
Precipitation  
Precipitation 0.00 in 0.10 in 0.76 in (2016)
Month to date precipitation 1.13  
Year to date precipitation 6.36  
Sea Level Pressure  
Sea Level Pressure 29.94 in    
Wind  
Wind Speed 23 mph (WNW)    
Max Wind Speed 29 mph    
Max Gust Speed 39 mph    
Visibility 10 miles    
Events      
T = Trace of Precipitation, MM = Missing Value Source: NWS Daily Summary

Daily Weather History Graph

Daily Weather History Graph

Search for Another Location

Airport or City:

Trip Planner

Search our weather history database for the weather conditions in past years. The results will help you decide how hot, cold, wet, or windy it might be!

Date:

Astronomy

Mar. 13, 2014 Rise Set
Actual Time 7:25 AM EDT 7:15 PM EDT
Civil Twilight 6:58 AM EDT 7:42 PM EDT
Nautical Twilight 6:27 AM EDT 8:13 PM EDT
Astronomical Twilight 5:55 AM EDT 8:45 PM EDT
Moon 4:40 PM EDT (3/13) 5:30 AM EDT (3/13)
Length of Visible Light 12h 43m
Length of Day
11h 50m
Waxing Gibbous, 91% of the Moon is Illuminated
Mar 13
Waxing Gibbous
Mar 16
Full
Mar 23
Last Quarter
Mar 30
New
Apr 7
First Quarter

Hourly Weather History & Observations

Time (EDT) Temp. Windchill Dew Point Humidity Pressure Visibility Wind Dir Wind Speed Gust Speed Precip Events Conditions
12:53 AM 26.1 °F 10.1 °F 12.9 °F 58% 29.60 in 10.0 mi NW 27.6 mph 35.7 mph N/A   Overcast
1:53 AM 24.1 °F 8.3 °F 10.9 °F 57% 29.64 in 10.0 mi NW 24.2 mph 35.7 mph N/A   Overcast
2:53 AM 23.0 °F 8.7 °F 10.9 °F 60% 29.67 in 10.0 mi NW 18.4 mph 27.6 mph N/A   Overcast
3:53 AM 23.0 °F 6.0 °F 9.0 °F 55% 29.69 in 10.0 mi WNW 27.6 mph 39.1 mph 0.00 in   Overcast
4:53 AM 19.9 °F 3.5 °F 7.0 °F 57% 29.73 in 10.0 mi WNW 21.9 mph 31.1 mph N/A   Overcast
5:53 AM 17.1 °F 1.5 °F 3.9 °F 56% 29.78 in 10.0 mi WNW 17.3 mph 26.5 mph N/A   Partly Cloudy
6:53 AM 16.0 °F -3.2 °F 1.9 °F 54% 29.81 in 10.0 mi WNW 26.5 mph - N/A   Scattered Clouds
7:53 AM 15.1 °F -2.5 °F -0.0 °F 51% 29.85 in 10.0 mi WNW 20.7 mph - N/A   Clear
8:53 AM 16.0 °F -3.2 °F -2.0 °F 45% 29.89 in 10.0 mi WNW 26.5 mph 33.4 mph N/A   Clear
9:53 AM 18.0 °F 0.6 °F -2.0 °F 41% 29.93 in 10.0 mi WNW 23.0 mph 32.2 mph N/A   Clear
10:53 AM 19.9 °F 1.5 °F -2.9 °F 37% 29.95 in 10.0 mi WNW 28.8 mph 38.0 mph N/A   Clear
11:53 AM 21.9 °F 5.5 °F -2.0 °F 35% 29.97 in 10.0 mi NW 24.2 mph 31.1 mph N/A   Clear
12:53 PM 26.1 °F 11.0 °F -0.9 °F 31% 29.99 in 10.0 mi WNW 24.2 mph 34.5 mph N/A   Clear
1:53 PM 27.0 °F 11.6 °F 1.9 °F 34% 30.00 in 10.0 mi WNW 26.5 mph 32.2 mph N/A   Clear
2:53 PM 28.0 °F 13.0 °F 1.9 °F 33% 30.01 in 10.0 mi WNW 26.5 mph 38.0 mph N/A   Clear
3:53 PM 30.0 °F 16.6 °F 3.9 °F 33% 30.02 in 10.0 mi WNW 23.0 mph 32.2 mph N/A   Clear
4:53 PM 30.0 °F 17.9 °F 3.0 °F 32% 30.04 in 10.0 mi WNW 18.4 mph 32.2 mph N/A   Clear
5:53 PM 30.0 °F 16.9 °F 3.0 °F 32% 30.06 in 10.0 mi WNW 21.9 mph 31.1 mph N/A   Clear
6:53 PM 28.0 °F 16.5 °F 3.9 °F 36% 30.10 in 10.0 mi WNW 15.0 mph - N/A   Clear
7:53 PM 27.0 °F 15.6 °F 5.0 °F 39% 30.13 in 10.0 mi West 13.8 mph - N/A   Clear
8:53 PM 27.0 °F 13.2 °F 3.9 °F 37% 30.17 in 10.0 mi West 20.7 mph - N/A   Clear
9:53 PM 26.1 °F 16.8 °F 3.0 °F 37% 30.20 in 10.0 mi WNW 9.2 mph - N/A   Clear
10:53 PM 27.0 °F 20.5 °F 3.0 °F 36% 30.20 in 10.0 mi West 5.8 mph - N/A   Clear
11:53 PM 26.1 °F 16.8 °F 5.0 °F 41% 30.20 in 10.0 mi West 9.2 mph - N/A   Clear